星链-3077 (STARLINK-3077 )

导读 | 豆包AI

STARLINK-3077是美国太空探索技术公司SpaceX于2021年9月14日发射的星链低轨互联网卫星,属于星链星座组网的组成单元。作为SpaceX星链项目的早期一代卫星,它依托猎鹰9号火箭送入近地轨道,主要为全球偏远、基础设施覆盖不足地区提供宽带互联网接入服务,支撑星链星座实现全球全域网络覆盖的核心目标,推动太空互联网基础设施建设进程。

基本信息
目录编号:
49133
目录名称:
STARLINK-3077
国际标识:
2021-082D
轨道中心:
EARTH
卫星名称:
星链-3077
卫星全名:
星链-3077 (STARLINK-3077 )
卫星状态:
在轨 (已飞行1642 天)
发射日期:
2021-09-14 UTC
国别 :
美国 (US)
星等 :
--
轨道信息
数据来源 国际轨道数据
星历时间: 2026-03-14T07:52:42+0800
18小时前
查看轨道信息
半长轴: 6950.165km
偏心率: 0.0002635
轨道倾角: 69.999°
近地点辐角 272.485°
升交点赤经 283.600°
平近点角 87.601°
近地点: 570.196km
远地点: 573.86km
周期: 96.106分钟
每日圈数: 14.983393
详细信息
固有亮度:
5
最大亮度:
2.5
卫星平台:
Starlink v1.5
覆盖范围:
全球
运营商:
太空探索技术公司
运营商所在国:
美国
制造商(研发单位):
太空探索技术公司
制造商所在国:
美国
使用方式:
暂无
卫星简介
星链(Starlink)计划是由太空探索技术公司(SpaceX)提出的一个巨型低轨卫星互联网星座项目,计划在2019年至2024年间在太空搭建由约1.2万颗卫星组成的“星链”网络,其中1584颗将部署在地球上空550千米处的近地轨道,并从2020年开始工作。该卫星仍在工作。
2D轨道图
3D轨道图
轨道高度分析图
轨道倾角分析图
轨道综合分析图
查看轨道综合分析图